When you browse on this site, cookies collect data to enhance your experience and personalize the content and advertising you see.
Visit our Privacy Policy to learn more. By continuing to use the site, you agree to this use of cookies and data.
  • Em Portugal
  • Lista de países
  • Para 7 dias
  • Temperatura da água
  • Mapas de satélite
  • Mapa do tempo
  • Widgets de tempo
  • user-avatar
    Iniciar Sessão

    Previsão horária em Zakrety

    Hoje, 17 Julho, Quarta-feira

    Tempo Temperatura Precipitação Vento Pressão Humidade
    00:00 +12°C° 0.3 mm 3 m/s 747 mmHg 90%
    01:00 +12°C° 0.3 mm 4 m/s 747 mmHg 93%
    02:00 +12°C° 0.1 mm 4 m/s 747 mmHg 94%
    03:00 +11°C° 0.1 mm 3 m/s 747 mmHg 94%
    04:00 +10°C° 0.1 mm 3 m/s 746 mmHg 95%
    05:00 +12°C° 0.1 mm 4 m/s 747 mmHg 93%
    06:00 +13°C° 0.1 mm 5 m/s 747 mmHg 90%
    07:00 +14°C° 0.1 mm 6 m/s 747 mmHg 88%
    08:00 +15°C° 0.3 mm 6 m/s 747 mmHg 83%
    09:00 +16°C° 0.3 mm 6 m/s 748 mmHg 78%
    10:00 +17°C° 0.3 mm 6 m/s 748 mmHg 73%
    11:00 +17°C° 0.1 mm 6 m/s 748 mmHg 70%
    12:00 +19°C° 0.1 mm 6 m/s 748 mmHg 66%
    13:00 +19°C° 0.1 mm 6 m/s 748 mmHg 62%
    14:00 +19°C° 0 mm 6 m/s 748 mmHg 63%
    15:00 +17°C° 0 mm 6 m/s 749 mmHg 65%
    16:00 +17°C° 0 mm 5 m/s 749 mmHg 66%
    17:00 +16°C° 0 mm 5 m/s 749 mmHg 71%
    18:00 +15°C° 0 mm 4 m/s 749 mmHg 76%
    19:00 +14°C° 0 mm 3 m/s 749 mmHg 81%
    20:00 +12°C° 0 mm 3 m/s 749 mmHg 85%
    21:00 +12°C° 0 mm 2 m/s 749 mmHg 89%
    22:00 +10°C° 0 mm 2 m/s 750 mmHg 93%
    23:00 +10°C° 0 mm 2 m/s 750 mmHg 94%

    Amanhã, 18 Julho, Quinta-feira

    Tempo Temperatura Precipitação Vento Pressão Humidade
    00:00 +10°C° 0 mm 2 m/s 750 mmHg 95%
    01:00 +9°C° 0 mm 2 m/s 750 mmHg 96%
    02:00 +9°C° 0 mm 2 m/s 750 mmHg 96%
    03:00 +9°C° 0 mm 2 m/s 750 mmHg 96%
    04:00 +9°C° 0 mm 2 m/s 750 mmHg 97%
    05:00 +12°C° 0 mm 2 m/s 750 mmHg 92%
    06:00 +14°C° 0 mm 2 m/s 750 mmHg 87%
    07:00 +16°C° 0 mm 2 m/s 750 mmHg 83%
    08:00 +17°C° 0 mm 2 m/s 750 mmHg 77%
    09:00 +18°C° 0 mm 2 m/s 750 mmHg 71%
    10:00 +20°C° 0 mm 2 m/s 751 mmHg 66%
    11:00 +20°C° 0 mm 2 m/s 750 mmHg 64%
    12:00 +21°C° 0 mm 2 m/s 750 mmHg 62%
    13:00 +21°C° 0 mm 2 m/s 750 mmHg 60%
    14:00 +21°C° 0 mm 2 m/s 750 mmHg 60%
    15:00 +21°C° 0 mm 2 m/s 750 mmHg 60%
    16:00 +21°C° 0 mm 2 m/s 750 mmHg 61%
    17:00 +20°C° 0 mm 2 m/s 750 mmHg 67%
    18:00 +19°C° 0 mm 2 m/s 750 mmHg 74%
    19:00 +17°C° 0 mm 2 m/s 750 mmHg 81%
    20:00 +16°C° 0 mm 2 m/s 750 mmHg 83%
    21:00 +14°C° 0 mm 1 m/s 750 mmHg 86%
    22:00 +13°C° 0 mm 1 m/s 751 mmHg 89%
    23:00 +13°C° 0 mm 1 m/s 751 mmHg 88%

    Depois de amanhã, 19 Julho, Sexta-feira

    Tempo Temperatura Precipitação Vento Pressão Humidade
    00:00 +12°C° 0 mm 1 m/s 751 mmHg 87%
    01:00 +12°C° 0 mm 1 m/s 751 mmHg 86%
    02:00 +12°C° 0 mm 1 m/s 751 mmHg 87%
    03:00 +12°C° 0 mm 1 m/s 751 mmHg 87%
    04:00 +12°C° 0 mm 1 m/s 751 mmHg 87%
    05:00 +14°C° 0 mm 1 m/s 751 mmHg 83%
    06:00 +16°C° 0 mm 1 m/s 751 mmHg 78%
    07:00 +19°C° 0 mm 1 m/s 751 mmHg 73%
    08:00 +20°C° 0 mm 1 m/s 751 mmHg 68%
    09:00 +22°C° 0 mm 1 m/s 751 mmHg 64%
    10:00 +23°C° 0 mm 1 m/s 751 mmHg 59%
    11:00 +24°C° 0 mm 1 m/s 751 mmHg 56%
    12:00 +24°C° 0 mm 2 m/s 751 mmHg 53%
    13:00 +25°C° 0 mm 2 m/s 751 mmHg 50%
    14:00 +25°C° 0 mm 1 m/s 751 mmHg 51%
    15:00 +25°C° 0 mm 1 m/s 751 mmHg 52%
    16:00 +25°C° 0 mm 1 m/s 750 mmHg 53%
    17:00 +24°C° 0 mm 1 m/s 751 mmHg 59%
    18:00 +22°C° 0 mm 1 m/s 751 mmHg 64%
    19:00 +21°C° 0 mm 1 m/s 751 mmHg 70%
    20:00 +19°C° 0 mm 2 m/s 751 mmHg 73%
    21:00 +18°C° 0 mm 2 m/s 751 mmHg 76%
    22:00 +17°C° 0 mm 2 m/s 751 mmHg 79%
    23:00 +16°C° 0 mm 2 m/s 751 mmHg 80%

    20 Julho, Sábado

    Tempo Temperatura Precipitação Vento Pressão Humidade
    00:00 +16°C° 0 mm 2 m/s 751 mmHg 82%
    01:00 +15°C° 0 mm 2 m/s 751 mmHg 83%
    02:00 +15°C° 0 mm 2 m/s 751 mmHg 84%
    03:00 +15°C° 0 mm 1 m/s 751 mmHg 85%
    04:00 +14°C° 0 mm 1 m/s 751 mmHg 86%
    05:00 +16°C° 0 mm 1 m/s 752 mmHg 80%
    06:00 +19°C° 0 mm 1 m/s 752 mmHg 75%
    07:00 +21°C° 0 mm 1 m/s 752 mmHg 69%
    08:00 +22°C° 0 mm 1 m/s 752 mmHg 64%
    09:00 +24°C° 0 mm 1 m/s 752 mmHg 59%
    10:00 +25°C° 0 mm 1 m/s 753 mmHg 54%
    11:00 +26°C° 0 mm 1 m/s 753 mmHg 52%
    12:00 +27°C° 0 mm 1 m/s 752 mmHg 49%
    13:00 +27°C° 0 mm 1 m/s 752 mmHg 46%
    14:00 +27°C° 0 mm 1 m/s 752 mmHg 48%
    15:00 +27°C° 0 mm 1 m/s 752 mmHg 49%
    16:00 +27°C° 0 mm 1 m/s 752 mmHg 51%
    17:00 +26°C° 0 mm 2 m/s 752 mmHg 58%
    18:00 +24°C° 0 mm 2 m/s 752 mmHg 65%
    19:00 +22°C° 0 mm 3 m/s 752 mmHg 72%
    20:00 +21°C° 0 mm 3 m/s 752 mmHg 73%
    21:00 +20°C° 0 mm 3 m/s 752 mmHg 75%
    22:00 +18°C° 0 mm 3 m/s 752 mmHg 76%
    23:00 +18°C° 0 mm 3 m/s 752 mmHg 75%

    21 Julho, Domingo

    Tempo Temperatura Precipitação Vento Pressão Humidade
    00:00 +18°C° 0 mm 3 m/s 752 mmHg 74%
    01:00 +17°C° 0 mm 3 m/s 752 mmHg 73%
    02:00 +17°C° 0 mm 3 m/s 752 mmHg 74%
    03:00 +17°C° 0 mm 3 m/s 752 mmHg 75%
    04:00 +17°C° 0 mm 3 m/s 752 mmHg 75%
    05:00 +18°C° 0 mm 3 m/s 752 mmHg 74%
    06:00 +20°C° 0 mm 4 m/s 752 mmHg 72%
    07:00 +21°C° 0 mm 4 m/s 752 mmHg 71%
    08:00 +22°C° 0.6 mm 3 m/s 752 mmHg 73%
    09:00 +22°C° 0.6 mm 3 m/s 752 mmHg 76%
    10:00 +24°C° 0.6 mm 2 m/s 752 mmHg 78%
    11:00 +24°C° 0.8 mm 2 m/s 752 mmHg 79%
    12:00 +24°C° 0.8 mm 2 m/s 752 mmHg 80%
    13:00 +24°C° 0.8 mm 2 m/s 752 mmHg 81%
    14:00 +24°C° 1.3 mm 2 m/s 752 mmHg 81%
    15:00 +24°C° 1.3 mm 3 m/s 752 mmHg 80%
    16:00 +24°C° 1.3 mm 3 m/s 752 mmHg 80%
    17:00 +22°C° 1.1 mm 3 m/s 752 mmHg 83%
    18:00 +21°C° 1.1 mm 3 m/s 752 mmHg 87%
    19:00 +20°C° 1.1 mm 2 m/s 752 mmHg 91%
    20:00 +20°C° 0.4 mm 2 m/s 752 mmHg 92%
    21:00 +20°C° 0.4 mm 1 m/s 752 mmHg 92%
    22:00 +19°C° 0.4 mm 1 m/s 752 mmHg 93%
    23:00 +19°C° 0.1 mm 1 m/s 752 mmHg 94%

    22 Julho, Segunda-feira

    Tempo Temperatura Precipitação Vento Pressão Humidade
    00:00 +17°C° 0.1 mm 2 m/s 753 mmHg 95%
    01:00 +17°C° 0.1 mm 2 m/s 753 mmHg 96%
    02:00 +17°C° 0 mm 2 m/s 753 mmHg 97%
    03:00 +17°C° 0 mm 2 m/s 753 mmHg 97%
    04:00 +16°C° 0 mm 2 m/s 753 mmHg 97%
    05:00 +17°C° 0 mm 3 m/s 753 mmHg 95%
    06:00 +18°C° 0 mm 3 m/s 754 mmHg 92%
    07:00 +20°C° 0 mm 3 m/s 754 mmHg 90%
    08:00 +21°C° 0 mm 3 m/s 754 mmHg 83%
    09:00 +22°C° 0 mm 3 m/s 755 mmHg 76%
    10:00 +24°C° 0 mm 3 m/s 755 mmHg 70%
    11:00 +25°C° 0.3 mm 4 m/s 755 mmHg 69%
    12:00 +25°C° 0.3 mm 4 m/s 755 mmHg 69%
    13:00 +25°C° 0.3 mm 5 m/s 755 mmHg 69%
    14:00 +25°C° 0.1 mm 5 m/s 755 mmHg 69%
    15:00 +25°C° 0.1 mm 5 m/s 755 mmHg 69%
    16:00 +23°C° 0.1 mm 5 m/s 755 mmHg 70%
    17:00 +22°C° 0 mm 4 m/s 755 mmHg 75%
    18:00 +21°C° 0 mm 4 m/s 755 mmHg 81%
    19:00 +19°C° 0 mm 3 m/s 755 mmHg 87%
    20:00 +18°C° 0 mm 3 m/s 755 mmHg 90%
    21:00 +17°C° 0 mm 2 m/s 755 mmHg 94%
    22:00 +16°C° 0 mm 2 m/s 756 mmHg 97%
    23:00 +16°C° 0 mm 2 m/s 756 mmHg 97%
    Mostrar mais